Date String (YYYY-MM-DD hh:mm:ss) UTC,Instrument flags,Ambient pressure (hPa),Sample flow (lpm),Bypass flow (lpm),Sample temperature (°C),Ambient temperature (°C),ASC tube jacket temperature (°C),LED temperature (°C),Box temperature (°C),Sample RH (%),Span deviation,Mass concentration (μg/m³),Mass concentration (μg/m³),Mass concentration (μg/m³)
DateTimeUTC,F1_M11,P_M11,Q1_M11,Q2_M11,T1_M11,T2_M11,T3_M11,T4_M11,T5_M11,U1_M11,ZSPAN_M11,X0_M11,X2_M11,X1_M11
2021-10-01 10:00:00,,0831.0,4.99,0.00,28.7,27.8,00.0,37.9,30.5,19.2,0000.0,0007.15,0003.81,0003.38
2021-10-01 10:01:00,,0830.9,4.99,0.00,28.7,27.8,00.0,37.9,30.5,19.3,0000.0,0006.84,0003.81,0003.38
2021-10-01 10:02:00,,0831.0,5.00,0.00,28.7,27.8,00.0,37.9,30.5,19.3,0000.0,0006.96,0003.82,0003.40
2021-10-01 10:03:00,,0830.9,5.00,0.00,28.7,27.8,00.0,37.9,30.5,19.3,0000.0,0007.10,0003.85,0003.43
2021-10-01 10:04:00,,0830.9,4.98,0.00,28.7,27.8,00.0,37.9,30.5,19.4,0000.0,0007.27,0003.91,0003.44
2021-10-01 10:05:00,,0830.9,5.01,0.00,28.7,27.8,00.0,37.9,30.5,19.5,0000.0,0007.41,0003.93,0003.45
2021-10-01 10:06:00,,0830.9,5.00,0.00,28.7,27.8,00.0,37.9,30.5,19.5,0000.0,0007.62,0003.92,0003.45
2021-10-01 10:07:00,,0830.9,5.00,0.00,28.7,27.8,00.0,37.9,30.5,19.5,0000.0,0008.23,0003.93,0003.46
2021-10-01 10:08:00,,0830.9,5.01,0.00,28.7,27.8,00.0,37.9,30.5,19.3,0000.0,0008.38,0003.95,0003.48
2021-10-01 10:09:00,,0830.9,5.00,0.00,28.7,27.8,00.0,37.9,30.5,19.2,0000.0,0008.66,0003.94,0003.49
2021-10-01 10:10:00,,0830.9,4.99,0.00,28.7,27.8,00.0,37.9,30.5,19.2,0000.0,0009.14,0003.96,0003.49
2021-10-01 10:11:00,,0830.9,4.99,0.00,28.7,27.8,00.0,37.9,30.5,19.1,0000.0,0009.29,0004.00,0003.50
2021-10-01 10:12:00,,0830.9,5.00,0.00,28.7,27.8,00.0,37.9,30.5,19.3,0000.0,0009.16,0004.01,0003.51
2021-10-01 10:13:00,,0830.9,5.01,0.00,28.7,27.8,00.0,37.9,30.5,19.3,0001.4,0009.68,0004.04,0003.51
2021-10-01 10:14:00,,0830.8,5.00,0.00,28.8,27.8,00.0,37.9,30.5,19.4,0001.8,0009.94,0004.01,0003.50
2021-10-01 10:15:00,,0830.8,5.00,0.00,28.7,27.8,00.0,37.9,30.5,19.4,0001.3,0010.25,0003.96,0003.50
2021-10-01 10:16:00,,0830.7,5.01,0.00,28.8,27.8,00.0,37.9,30.5,19.2,0001.0,0010.17,0003.93,0003.50
2021-10-01 10:17:00,,0830.8,4.99,0.00,28.8,27.8,00.0,37.9,30.5,19.1,0001.1,0009.96,0003.94,0003.50
2021-10-01 10:18:00,,0830.7,5.02,0.00,28.8,27.8,00.0,37.9,30.5,19.1,0001.2,0009.40,0003.96,0003.50
2021-10-01 10:19:00,,0830.7,4.99,0.00,28.8,27.8,00.0,37.9,30.5,19.2,0000.8,0009.26,0003.94,0003.49
2021-10-01 10:20:00,,0830.8,5.02,0.00,28.8,27.8,00.0,37.9,30.5,19.2,0000.0,0008.87,0003.92,0003.49
2021-10-01 10:21:00,,0830.7,4.99,0.00,28.8,27.8,00.0,37.9,30.5,19.3,0000.3,0008.32,0003.89,0003.48
2021-10-01 10:22:00,,0830.7,5.02,0.00,28.8,27.8,00.0,37.9,30.6,19.3,0000.5,0008.13,0003.84,0003.48
2021-10-01 10:23:00,,0830.7,5.00,0.00,28.8,27.8,00.0,37.9,30.5,19.3,0000.0,0008.13,0003.85,0003.48
2021-10-01 10:24:00,,0830.7,4.99,0.00,28.8,27.8,00.0,37.9,30.5,19.2,0000.3,0007.45,0003.82,0003.48
2021-10-01 10:25:00,,0830.8,5.00,0.00,28.8,27.8,00.0,37.9,30.5,19.1,0000.6,0007.26,0003.87,0003.49
2021-10-01 10:26:00,,0830.7,5.01,0.00,28.7,27.7,00.0,37.9,30.5,19.1,0000.3,0006.79,0003.91,0003.51
2021-10-01 10:27:00,,0830.7,5.00,0.00,28.7,27.8,00.0,37.9,30.5,19.1,0000.1,0006.79,0003.92,0003.51
2021-10-01 10:28:00,,0830.8,5.01,0.00,28.8,27.8,00.0,37.9,30.5,19.2,0000.6,0006.90,0003.94,0003.52
2021-10-01 10:29:00,,0830.7,5.00,0.00,28.7,27.8,00.0,37.9,30.5,19.3,0000.5,0006.92,0003.94,0003.52
2021-10-01 10:30:00,,0830.8,4.99,0.00,28.7,27.8,00.0,37.9,30.5,19.2,0000.3,0007.43,0003.94,0003.51
2021-10-01 10:31:00,,0830.8,5.00,0.00,28.7,27.8,00.0,37.9,30.5,19.1,0000.7,0007.84,0003.94,0003.51
2021-10-01 10:32:00,,0830.8,5.00,0.00,28.7,27.8,00.0,37.9,30.5,19.1,0000.3,0007.99,0003.94,0003.52
2021-10-01 10:33:00,,0830.8,4.99,0.00,28.7,27.8,00.0,37.9,30.5,19.1,0000.0,0008.28,0003.97,0003.53
2021-10-01 10:34:00,,0830.8,5.00,0.00,28.7,27.8,00.0,37.9,30.5,19.2,0000.0,0008.27,0003.98,0003.53
2021-10-01 10:35:00,,0830.8,5.01,0.00,28.7,27.8,00.0,37.9,30.5,19.1,0000.0,0008.30,0003.98,0003.53
2021-10-01 10:36:00,,0830.7,4.99,0.00,28.8,27.8,00.0,37.9,30.5,19.1,0000.0,0008.26,0003.95,0003.52
2021-10-01 10:37:00,,0830.7,5.01,0.00,28.7,27.8,00.0,37.9,30.5,19.1,0000.0,0008.37,0003.98,0003.53
2021-10-01 10:38:00,,0830.7,4.99,0.00,28.7,27.8,00.0,37.9,30.5,19.1,0000.0,0008.35,0003.97,0003.53
2021-10-01 10:39:00,,0830.7,5.00,0.00,28.7,27.8,00.0,37.9,30.5,19.1,0000.0,0008.50,0003.97,0003.55
2021-10-01 10:40:00,,0830.9,5.01,0.00,28.7,27.8,00.0,37.9,30.5,19.1,0000.0,0008.47,0003.98,0003.56
2021-10-01 10:41:00,,0830.8,5.00,0.00,28.7,27.8,00.0,37.9,30.5,19.1,0000.0,0008.15,0004.00,0003.57
2021-10-01 10:42:00,,0830.8,4.99,0.00,28.8,27.8,00.0,37.9,30.5,19.1,0000.0,0007.77,0004.01,0003.58
2021-10-01 10:43:00,,0830.9,5.01,0.00,28.8,27.8,00.0,37.9,30.5,19.1,0001.1,0007.60,0004.01,0003.58
2021-10-01 10:44:00,,0830.9,5.00,0.00,28.8,27.8,00.0,37.9,30.5,19.2,0002.7,0007.33,0003.99,0003.58
2021-10-01 10:45:00,,0830.9,5.00,0.00,28.7,27.8,00.0,37.9,30.5,19.1,0001.3,0007.83,0003.99,0003.58
2021-10-01 10:46:00,,0830.9,5.01,0.00,28.7,27.8,00.0,37.9,30.5,19.0,0002.3,0007.80,0003.98,0003.59
2021-10-01 10:47:00,,0830.9,5.00,0.00,28.7,27.8,00.0,37.9,30.5,19.0,0001.8,0007.70,0003.97,0003.60
2021-10-01 10:48:00,,0830.9,4.99,0.00,28.7,27.8,00.0,37.9,30.5,19.0,0001.1,0007.57,0003.95,0003.61
2021-10-01 10:49:00,,0830.9,4.99,0.00,28.7,27.8,00.0,37.9,30.5,19.0,0001.9,0007.60,0003.97,0003.62
2021-10-01 10:50:00,,0830.9,5.00,0.00,28.7,27.8,00.0,37.9,30.5,18.9,0002.0,0007.47,0003.99,0003.63
2021-10-01 10:51:00,,0830.9,5.01,0.00,28.7,27.8,00.0,37.9,30.5,18.9,0001.4,0007.50,0004.00,0003.64
2021-10-01 10:52:00,,0830.9,4.99,0.00,28.7,27.7,00.0,37.9,30.5,18.9,0001.2,0007.53,0004.01,0003.65
2021-10-01 10:53:00,,0831.0,4.99,0.00,28.7,27.7,00.0,37.9,30.5,18.9,0001.3,0007.58,0004.05,0003.67
2021-10-01 10:54:00,,0830.9,4.99,0.00,28.7,27.7,00.0,37.9,30.5,18.9,0001.0,0007.61,0004.08,0003.68
2021-10-01 10:55:00,,0830.9,5.00,0.00,28.7,27.7,00.0,37.9,30.5,18.9,0000.7,0007.67,0004.10,0003.70
2021-10-01 10:56:00,,0830.9,5.01,0.00,28.7,27.7,00.0,37.9,30.5,19.0,0000.3,0007.17,0004.13,0003.72
2021-10-01 10:57:00,,0830.9,5.01,0.00,28.7,27.7,00.0,37.9,30.4,19.0,0000.5,0007.25,0004.16,0003.72
2021-10-01 10:58:00,,0830.9,4.99,0.00,28.7,27.7,00.0,37.9,30.4,19.0,0000.2,0007.42,0004.19,0003.73
2021-10-01 10:59:00,,0831.0,5.01,0.00,28.7,27.7,00.0,37.9,30.4,19.0,-000.2,0007.59,0004.21,0003.74
